Tracking 19293 objects as of 21-Nov-2018
HD Live streaming from Space Station
objects crossing your sky now

MINOTAUR-C DEB

Track MINOTAUR-C DEB now!
10-day predictions


NORAD ID: 42993
Int'l Code: 2017-068G
Perigee: 504.8 km
Apogee: 529.0 km
Inclination: 97.4 °
Period: 94.8 minutes
Semi major axis: 6887 km
RCS: Unknown
Launch date: October 31, 2017
Source: United States (US)
Launch site: AIR FORCE WESTERN TEST RANGE (AFWTR)

Note: This is SATELLITE DEBRIS
aabbcc
Your satellite tracking list
Your tracking list is empty




NASA's NSSDC Master Catalog

Two Line Element Set (TLE):
1 42993U 17068G   18324.90519785 +.00000718 +00000-0 +37750-4 0  9993
2 42993 097.3808 073.9890 0017612 323.8368 036.1674 15.18700839058417
Source of the keplerian elements: AFSPC